Danbury, CT

6:03 AM EDT on August 24, 2016 (GMT -0400)
Danbury Municipal

Weather History for KDXR - November, 2011

Change the Weather History Date:

Sunday, November 6, 2011

  Actual Average Record
Temperature  
Mean Temperature 38 °F -  
Max Temperature 54 °F 52 °F 73 °F (1948)
Min Temperature 21 °F 33 °F 19 °F (2012)
Degree Days  
Heating Degree Days 28    
Moisture  
Dew Point 29 °F    
Average Humidity 78    
Maximum Humidity 96    
Minimum Humidity 48    
Precipitation  
Precipitation 0.00 in - - ()
Sea Level Pressure  
Sea Level Pressure 30.48 in    
Wind  
Wind Speed 2 mph (SW)    
Max Wind Speed 10 mph    
Max Gust Speed 17 mph    
Visibility 10 miles    
Events      
Averages and records for this station are not official NWS values.
T = Trace of Precipitation, MM = Missing Value Source: NWS Daily Summary

Daily Weather History Graph

Daily Weather History Graph

Search for Another Location

Airport or City:

Trip Planner

Search our weather history database for the weather conditions in past years. The results will help you decide how hot, cold, wet, or windy it might be!

Date:

Astronomy

Nov. 06, 2011 Rise Set
Actual Time 6:31 AM EST 4:43 PM EST
Civil Twilight 6:02 AM EST 5:12 PM EST
Nautical Twilight 5:29 AM EST 5:45 PM EST
Astronomical Twilight 4:56 AM EST 6:17 PM EST
Moon 2:28 PM EST (11/6) 2:32 AM EST (11/6)
Length of Visible Light 11h 10m
Length of Day
10h 12m
Waxing Gibbous, 85% of the Moon is Illuminated
Nov 6
Waxing Gibbous
Nov 10
Full
Nov 18
Last Quarter
Nov 25
New
Dec 2
First Quarter

Hourly Weather History & Observations

Time (EST) Temp. Windchill Dew Point Humidity Pressure Visibility Wind Dir Wind Speed Gust Speed Precip Events Conditions
12:53 AM 27.0 °F - 24.1 °F 89% 30.51 in 10.0 mi Calm Calm - N/A   Clear
1:53 AM 25.0 °F - 23.0 °F 92% 30.52 in 10.0 mi Calm Calm - N/A   Clear
1:53 AM 25.0 °F - 23.0 °F 92% 30.52 in 10.0 mi Calm Calm - N/A   Clear
2:53 AM 24.1 °F - 21.9 °F 91% 30.51 in 10.0 mi Calm Calm - N/A   Clear
3:53 AM 23.0 °F - 21.9 °F 96% 30.51 in 10.0 mi Calm Calm - N/A   Clear
4:53 AM 23.0 °F - 21.0 °F 92% 30.53 in 10.0 mi Calm Calm - N/A   Clear
5:53 AM 21.9 °F - 21.0 °F 96% 30.53 in 10.0 mi Calm Calm - N/A   Clear
6:53 AM 23.0 °F - 21.0 °F 92% 30.55 in 9.0 mi Calm Calm - N/A   Clear
7:53 AM 28.0 °F - 25.0 °F 88% 30.56 in 10.0 mi Calm Calm - N/A   Clear
8:53 AM 34.0 °F - 30.0 °F 85% 30.56 in 10.0 mi Calm Calm - N/A   Clear
9:53 AM 46.0 °F 41.4 °F 34.0 °F 63% 30.56 in 10.0 mi WSW 9.2 mph 17.3 mph N/A   Clear
10:53 AM 48.9 °F - 36.0 °F 61% 30.53 in 10.0 mi WSW 8.1 mph - N/A   Clear
11:53 AM 50.0 °F - 36.0 °F 59% 30.49 in 10.0 mi Variable 6.9 mph - N/A   Clear
12:53 PM 52.0 °F - 34.0 °F 50% 30.47 in 10.0 mi SSW 8.1 mph - N/A   Clear
1:53 PM 53.1 °F - 34.0 °F 48% 30.44 in 10.0 mi WSW 10.4 mph - N/A   Clear
2:53 PM 54.0 °F - 35.1 °F 49% 30.43 in 10.0 mi WSW 8.1 mph - N/A   Clear
3:53 PM 52.0 °F - 35.1 °F 53% 30.42 in 10.0 mi SW 6.9 mph - N/A   Clear
4:53 PM 45.0 °F 42.6 °F 35.1 °F 68% 30.41 in 10.0 mi South 4.6 mph - N/A   Clear
5:53 PM 39.9 °F 37.8 °F 34.0 °F 79% 30.42 in 10.0 mi SW 3.5 mph - N/A   Clear
6:53 PM 43.0 °F - 35.1 °F 74% 30.42 in 10.0 mi Calm Calm - N/A   Clear
7:53 PM 37.0 °F - 34.0 °F 89% 30.41 in 10.0 mi Calm Calm - N/A   Clear
8:53 PM 35.1 °F - 33.1 °F 92% 30.41 in 10.0 mi Calm Calm - N/A   Clear
10:53 PM 30.9 °F - 30.0 °F 96% 30.39 in 10.0 mi Calm Calm - N/A   Clear